sat.trackr.live / text

‹ back to catalog

KUIPER-00011

NORAD 63727 · 2025-088D

PAYLOAD ACTIVE UNKNOWN

§ Identity

Operator
Country
US
Launch date
2025-04-28
Launch site
AFETR
Launch vehicle
Mass (kg)
RCS (m²)

External: N2YO · Heavens-Above · Gunter

§ Orbital elements

Epoch: 2026-05-25T04:15:04.832928Z

Period
97.30 min
Inclination
51.9004°
Eccentricity
0.0000740
Mean motion
14.79948392 rev/d
Perigee alt
629.0 km
Apogee alt
630.0 km
Semi-major
7,007.6 km
B*
2.1716e-4
RAAN
112.4311°
Arg perigee
46.8709°
Mean anomaly
313.2315°
Rev number
5,908

§ Raw data

KUIPER-000111 63727U 25088D   26145.17713927  .00001435  00000+0  21716-3 0  99952 63727  51.9004 112.4311 0000740  46.8709 313.2315 14.79948392 59080

JSON: /api/v1/satellites/63727 · /tle

For live sub-satellite position, see the globe view (requires WebGL).

§ Visibility from observer

Set your observer location to see the next 7 days of passes ≥ 10°. The values pass through the URL so the page stays shareable.

No JS? Fill the form by hand. The geolocation button needs JavaScript.